Aeroporto :
LOGIN :

Iscrizione | Disclaimer

   EN    FR    IT 

 










Sommario :    VFR   VFR Marginale   IFR   IFR Intensivo   IFR Molto Intensivo
Visibilità : 
Base nubi : 
>= 8 km
>= 3000ft
5 / 8 km
1000 / 3000 ft
1500m / 5 km
500 / 1000 ft
800 / 1500m
200 / 500 ft
< 800m
< 200 ft
Simboli :   Temporali  Nebbia  Neve Forte  Precipitazioni Forti  Vento > 20 kt
SIGMETs :   Varie  Temporali  Ghiacco  Turbolenza  Onda orograficha  Ceneri Vulcaniche







- Altitudine del aeroporto : 408 ft
- Codice IATA : FKB


EDSB - Karlsruhe Baden Baden

ULTIMO METAR :
  • 251150Z 32008KT 270V350 9999 FEW035 BKN050 11/05 Q1009

METARs OBSOLETI :
  • 251120Z 27006KT 220V320 9999 SCT031 BKN051 12/05 Q1009
  • 251050Z 26007KT 220V300 9999 SCT034 BKN050 13/05 Q1009
  • 251020Z 24008KT 200V270 9999 SCT038 13/05 Q1009
  • 250950Z 23008KT CAVOK 13/06 Q1009
  • 250920Z 26006KT 220V290 CAVOK 12/05 Q1009

TAF TAF EDSB
Valido dal 25 a 12 ore il 26 a 12 ore UTC


251100Z 2512/2612 30007KT 9999 SCT030
TEMPO 2516/2601 4000 RA
TEMPO 2516/2610 BKN012
BECMG 2518/2521 02005KT
PROB30
TEMPO 2522/2607 BKN008
Nessun NOTAM noto per questo aeroporto.



MetMap, La meteo Aeronautica in un colpo d'occhio ! - Copyright ORBIFLY Dicembre 2007 - Disclaimer

ORBIFLY MET'MAP TEAM :

Programmazione e sviluppo : Alexandra Zaïnal
Concezione e sviluppo : Baudouin d'Aumeries
Co-Programmazione e sviluppo : Marc-Olivier Méhu
Supporto tecnico e logistico : Manuel Goepfert
Aiuto per la traduzione : Arnaldo La Scala

Contatto : metmap@orbifly.com




FONTI E CREDITI :

   NOAA